DAL2581 KATL-KMIA

Flight info

Callsign DAL2581
Flight time 1h 20m
Altitude 35000
Route BANNG3 LUCKK HONID FROGZ5
Aircraft A321/M-SDE3FGHIRWY/LB1

Departure

Time 2026-05-04 22:55
Airport Hartsfield Jackson Atlanta International Airport (KATL)

Arrival

Time 2026-05-05 00:15
Airport Miami International Airport (KMIA)
Time Latitude Longitude Altitude Speed Heading
2026-05-04 22:36 33.63793 -84.43650 1007 ft 0 kts 90°
2026-05-04 22:38 33.63794 -84.43668 1006 ft 4 kts 91°
2026-05-04 22:38 33.63798 -84.43699 1006 ft 4 kts 120°
2026-05-04 22:38 33.63815 -84.43719 1006 ft 4 kts 166°
2026-05-04 22:39 33.63828 -84.43721 1006 ft 1 kts 180°
2026-05-04 22:39 33.63829 -84.43721 1006 ft 0 kts 180°
2026-05-04 22:46 33.63809 -84.43721 1006 ft 8 kts 180°
2026-05-04 22:46 33.63751 -84.43721 1006 ft 8 kts 180°
2026-05-04 22:47 33.63732 -84.43721 1006 ft 0 kts 180°
2026-05-04 22:47 33.63727 -84.43721 1006 ft 5 kts 180°
2026-05-04 22:47 33.63673 -84.43676 1006 ft 12 kts 124°
2026-05-04 22:47 33.63663 -84.43579 1006 ft 15 kts 90°
2026-05-04 22:48 33.63663 -84.43462 1006 ft 11 kts 90°
2026-05-04 22:48 33.63663 -84.43369 1006 ft 12 kts 90°
2026-05-04 22:48 33.63663 -84.43277 1006 ft 10 kts 90°
2026-05-04 22:48 33.63664 -84.43190 1006 ft 11 kts 89°
2026-05-04 22:49 33.63665 -84.43102 1006 ft 10 kts 91°
2026-05-04 22:49 33.63664 -84.43005 1006 ft 17 kts 90°
2026-05-04 22:49 33.63663 -84.42843 1006 ft 20 kts 90°
2026-05-04 22:49 33.63654 -84.42687 1007 ft 18 kts 91°
2026-05-04 22:50 33.63655 -84.42548 1007 ft 16 kts 90°
2026-05-04 22:50 33.63655 -84.42412 1007 ft 17 kts 89°
2026-05-04 22:50 33.63656 -84.42274 1007 ft 16 kts 89°
2026-05-04 22:50 33.63656 -84.42148 1007 ft 15 kts 90°
2026-05-04 22:51 33.63655 -84.42026 1007 ft 14 kts 90°
2026-05-04 22:51 33.63654 -84.41914 1006 ft 13 kts 90°
2026-05-04 22:51 33.63654 -84.41809 1006 ft 12 kts 89°
2026-05-04 22:51 33.63655 -84.41710 1006 ft 13 kts 89°
2026-05-04 22:52 33.63655 -84.41580 1006 ft 20 kts 90°
2026-05-04 22:52 33.63654 -84.41407 1006 ft 20 kts 90°
2026-05-04 22:52 33.63654 -84.41244 1006 ft 19 kts 86°
2026-05-04 22:52 33.63656 -84.41096 1006 ft 17 kts 94°
2026-05-04 22:53 33.63653 -84.40962 1006 ft 15 kts 91°
2026-05-04 22:53 33.63586 -84.40908 1006 ft 12 kts 179°
2026-05-04 22:53 33.63507 -84.40907 1007 ft 11 kts 182°
2026-05-04 22:53 33.63471 -84.40951 1007 ft 7 kts 267°
2026-05-04 22:54 33.63471 -84.41014 1006 ft 8 kts 269°
2026-05-04 22:54 33.63471 -84.41175 1005 ft 45 kts 269°
2026-05-04 22:54 33.63470 -84.41821 1007 ft 107 kts 270°
2026-05-04 22:54 33.63471 -84.42894 1007 ft 152 kts 270°
2026-05-04 22:55 33.63482 -84.44277 1326 ft 166 kts 270°
2026-05-04 22:55 33.63504 -84.45650 1906 ft 167 kts 268°
2026-05-04 22:55 33.63535 -84.47049 2496 ft 168 kts 268°
2026-05-04 22:55 33.63533 -84.48468 2876 ft 175 kts 265°
2026-05-04 22:56 33.63509 -84.50023 3018 ft 198 kts 266°
2026-05-04 22:56 33.63485 -84.51763 3164 ft 220 kts 266°
2026-05-04 22:56 33.63464 -84.53706 3383 ft 245 kts 266°
2026-05-04 22:56 33.63448 -84.55831 3816 ft 262 kts 267°
2026-05-04 22:57 33.63441 -84.58037 4550 ft 266 kts 267°
2026-05-04 22:57 33.63442 -84.60271 5338 ft 268 kts 268°
2026-05-04 22:57 33.63414 -84.62515 6142 ft 269 kts 261°
2026-05-04 22:57 33.62929 -84.64675 6864 ft 270 kts 243°
2026-05-04 22:58 33.61876 -84.66533 7590 ft 271 kts 225°
2026-05-04 22:58 33.60383 -84.67899 8361 ft 272 kts 210°
2026-05-04 22:58 33.58687 -84.68924 9103 ft 275 kts 200°
2026-05-04 22:58 33.56805 -84.69404 9811 ft 281 kts 185°
2026-05-04 22:59 33.54832 -84.69237 10429 ft 287 kts 173°
2026-05-04 22:59 33.52847 -84.68849 11060 ft 291 kts 173°
2026-05-04 22:59 33.50834 -84.68462 11708 ft 295 kts 173°
2026-05-04 22:59 33.48820 -84.68081 12345 ft 298 kts 173°
2026-05-04 23:00 33.46755 -84.67693 12982 ft 302 kts 173°
2026-05-04 23:00 33.44666 -84.67303 13630 ft 306 kts 173°
2026-05-04 23:00 33.42551 -84.66873 13930 ft 310 kts 168°
2026-05-04 23:00 33.40479 -84.65990 14188 ft 326 kts 158°
2026-05-04 23:01 33.38343 -84.64845 14310 ft 346 kts 158°
2026-05-04 23:01 33.36096 -84.63632 14531 ft 361 kts 158°
2026-05-04 23:01 33.33787 -84.62380 15021 ft 367 kts 158°
2026-05-04 23:01 33.31452 -84.61111 15591 ft 370 kts 158°
2026-05-04 23:02 33.29100 -84.59836 16174 ft 373 kts 158°
2026-05-04 23:02 33.26729 -84.58553 16752 ft 376 kts 159°
2026-05-04 23:02 33.24336 -84.57263 17329 ft 379 kts 159°
2026-05-04 23:02 33.21924 -84.55971 17891 ft 381 kts 159°
2026-05-04 23:03 33.19494 -84.54672 18433 ft 384 kts 159°
2026-05-04 23:03 33.17038 -84.53355 18900 ft 388 kts 159°
2026-05-04 23:03 33.14567 -84.52028 19361 ft 391 kts 159°
2026-05-04 23:03 33.12077 -84.50690 19798 ft 395 kts 159°
2026-05-04 23:04 33.09562 -84.49339 20237 ft 398 kts 159°
2026-05-04 23:04 33.07024 -84.47979 20683 ft 401 kts 159°
2026-05-04 23:04 33.04466 -84.46609 21118 ft 405 kts 159°
2026-05-04 23:04 33.02758 -84.45694 21397 ft 407 kts 159°
2026-05-04 23:05 32.99309 -84.43847 21942 ft 412 kts 160°
2026-05-04 23:05 32.96603 -84.42704 22347 ft 411 kts 170°
2026-05-04 23:05 32.93794 -84.42132 22763 ft 409 kts 180°
2026-05-04 23:05 32.91909 -84.42050 23024 ft 409 kts 184°
2026-05-04 23:06 32.89050 -84.42004 23436 ft 412 kts 184°
2026-05-04 23:06 32.86164 -84.41951 23802 ft 415 kts 183°
2026-05-04 23:06 32.83263 -84.41893 24153 ft 418 kts 183°
2026-05-04 23:06 32.80342 -84.41831 24516 ft 420 kts 183°
2026-05-04 23:07 32.77406 -84.41770 24874 ft 422 kts 183°
2026-05-04 23:07 32.74453 -84.41708 25205 ft 424 kts 184°
2026-05-04 23:07 32.71492 -84.41646 25549 ft 427 kts 184°
2026-05-04 23:07 32.68546 -84.41585 25889 ft 429 kts 184°
2026-05-04 23:08 32.65551 -84.41522 26236 ft 431 kts 184°
2026-05-04 23:08 32.62528 -84.41457 26570 ft 434 kts 184°
2026-05-04 23:08 32.59504 -84.41393 26906 ft 436 kts 184°
2026-05-04 23:08 32.56459 -84.41330 27234 ft 438 kts 184°
2026-05-04 23:09 32.53400 -84.41270 27559 ft 440 kts 184°
2026-05-04 23:09 32.50324 -84.41216 27873 ft 442 kts 184°
2026-05-04 23:09 32.47241 -84.41161 28123 ft 445 kts 185°
2026-05-04 23:09 32.44164 -84.41104 28386 ft 449 kts 185°
2026-05-04 23:10 32.41035 -84.41044 28679 ft 451 kts 185°
2026-05-04 23:10 32.37886 -84.40981 28977 ft 453 kts 185°
2026-05-04 23:10 32.34721 -84.40916 29269 ft 455 kts 184°
2026-05-04 23:10 32.31537 -84.40850 29560 ft 457 kts 185°
2026-05-04 23:11 32.28346 -84.40788 29821 ft 459 kts 185°
2026-05-04 23:11 32.25183 -84.40726 30087 ft 461 kts 185°
2026-05-04 23:11 32.21959 -84.40661 30303 ft 463 kts 185°
2026-05-04 23:11 32.18718 -84.40595 30469 ft 467 kts 185°
2026-05-04 23:12 32.15454 -84.40531 30661 ft 470 kts 185°
2026-05-04 23:12 32.12179 -84.40469 30883 ft 472 kts 186°
2026-05-04 23:12 32.08893 -84.40405 31199 ft 471 kts 186°
2026-05-04 23:12 32.05607 -84.40336 31514 ft 472 kts 186°
2026-05-04 23:13 32.02320 -84.40267 31815 ft 472 kts 186°
2026-05-04 23:13 31.99070 -84.40199 32112 ft 472 kts 186°
2026-05-04 23:13 31.95772 -84.40132 32416 ft 472 kts 187°
2026-05-04 23:13 31.92482 -84.40066 32613 ft 474 kts 187°
2026-05-04 23:14 31.89171 -84.40003 32826 ft 476 kts 188°
2026-05-04 23:14 31.85851 -84.39938 33088 ft 477 kts 188°
2026-05-04 23:14 31.82568 -84.39871 33368 ft 478 kts 188°
2026-05-04 23:14 31.79236 -84.39801 33653 ft 478 kts 188°
2026-05-04 23:15 31.75903 -84.39734 33942 ft 478 kts 188°
2026-05-04 23:15 31.72568 -84.39668 34199 ft 479 kts 188°
2026-05-04 23:15 31.69226 -84.39602 34443 ft 479 kts 188°
2026-05-04 23:15 31.65931 -84.39507 34612 ft 483 kts 185°
2026-05-04 23:16 31.62555 -84.38990 34773 ft 496 kts 176°
2026-05-04 23:16 31.59164 -84.38128 34960 ft 498 kts 176°
2026-05-04 23:16 31.52412 -84.36395 35063 ft 493 kts 176°
2026-05-04 23:17 31.45715 -84.34689 35061 ft 491 kts 176°
2026-05-04 23:17 31.39036 -84.33012 35007 ft 491 kts 176°
2026-05-04 23:18 31.32335 -84.31332 35053 ft 493 kts 176°
2026-05-04 23:18 31.25668 -84.29652 35054 ft 493 kts 176°
2026-05-04 23:19 31.18952 -84.27954 35077 ft 492 kts 176°
2026-05-04 23:19 31.12183 -84.26253 35055 ft 503 kts 176°
2026-05-04 23:20 31.05313 -84.24544 35050 ft 509 kts 176°
2026-05-04 23:20 30.98366 -84.22803 35048 ft 510 kts 176°
2026-05-04 23:21 30.91406 -84.21049 35047 ft 510 kts 176°
2026-05-04 23:21 30.84453 -84.19308 35050 ft 510 kts 176°
2026-05-04 23:22 30.77540 -84.17591 35012 ft 511 kts 176°
2026-05-04 23:22 30.70571 -84.15865 35030 ft 512 kts 176°
2026-05-04 23:23 30.63578 -84.14132 35038 ft 512 kts 176°
2026-05-04 23:23 30.56642 -84.12402 35048 ft 513 kts 175°
2026-05-04 23:24 30.49657 -84.10658 35057 ft 513 kts 176°
2026-05-04 23:24 30.42654 -84.08930 35062 ft 513 kts 176°
2026-05-04 23:25 30.35792 -84.06491 35059 ft 527 kts 160°
2026-05-04 23:25 30.29334 -84.02294 35059 ft 532 kts 155°
2026-05-04 23:26 30.22900 -83.98015 35010 ft 533 kts 155°
2026-05-04 23:26 30.16469 -83.93767 35025 ft 534 kts 155°
2026-05-04 23:27 30.10011 -83.89504 35060 ft 533 kts 156°
2026-05-04 23:27 30.03616 -83.85276 35079 ft 532 kts 155°
2026-05-04 23:28 29.97200 -83.81036 35080 ft 530 kts 156°
2026-05-04 23:28 29.90778 -83.76806 35049 ft 530 kts 155°
2026-05-04 23:29 29.84397 -83.72618 35061 ft 530 kts 155°
2026-05-04 23:29 29.77988 -83.68408 35059 ft 530 kts 155°
2026-05-04 23:30 29.71572 -83.64198 35056 ft 530 kts 155°
2026-05-04 23:30 29.65205 -83.60025 35002 ft 530 kts 155°
2026-05-04 23:31 29.58779 -83.55832 35012 ft 530 kts 155°
2026-05-04 23:31 29.52373 -83.51663 35053 ft 530 kts 155°
2026-05-04 23:32 29.45965 -83.47487 35068 ft 528 kts 155°
2026-05-04 23:32 29.39584 -83.43322 35068 ft 527 kts 155°
2026-05-04 23:33 29.33196 -83.39170 35035 ft 527 kts 155°
2026-05-04 23:33 29.26859 -83.35061 35044 ft 526 kts 156°
2026-05-04 23:34 29.20277 -83.31520 35044 ft 521 kts 162°
2026-05-04 23:34 29.13627 -83.28156 35018 ft 523 kts 162°
2026-05-04 23:35 29.06954 -83.24785 34971 ft 525 kts 161°
2026-05-04 23:35 29.00271 -83.21399 35040 ft 529 kts 161°
2026-05-04 23:36 28.93541 -83.17987 35051 ft 529 kts 161°
2026-05-04 23:36 28.86806 -83.14585 35054 ft 528 kts 161°
2026-05-04 23:37 28.80087 -83.11208 35067 ft 525 kts 161°
2026-05-04 23:37 28.73394 -83.07839 35035 ft 524 kts 161°
2026-05-04 23:38 28.66744 -83.04497 35046 ft 524 kts 161°
2026-05-04 23:38 28.60070 -83.01148 35046 ft 523 kts 161°
2026-05-04 23:39 28.53410 -82.97814 35043 ft 523 kts 161°
2026-05-04 23:39 28.46754 -82.94487 35001 ft 523 kts 161°
2026-05-04 23:40 28.40128 -82.91175 35011 ft 523 kts 161°
2026-05-04 23:40 28.33457 -82.87841 35016 ft 524 kts 161°
2026-05-04 23:41 28.26772 -82.84511 35020 ft 524 kts 161°
2026-05-04 23:41 28.20086 -82.81181 35027 ft 525 kts 161°
2026-05-04 23:42 28.13431 -82.77876 35009 ft 525 kts 161°
2026-05-04 23:42 28.06724 -82.74553 35049 ft 523 kts 161°
2026-05-04 23:43 28.00011 -82.71610 35049 ft 514 kts 172°
2026-05-04 23:43 27.93031 -82.70146 35044 ft 508 kts 176°
2026-05-04 23:44 27.86053 -82.68780 35014 ft 508 kts 176°
2026-05-04 23:44 27.79087 -82.67400 34999 ft 508 kts 176°
2026-05-04 23:45 27.72115 -82.66021 35000 ft 508 kts 176°
2026-05-04 23:45 27.65185 -82.64658 35003 ft 509 kts 176°
2026-05-04 23:46 27.58211 -82.63295 35010 ft 509 kts 176°
2026-05-04 23:46 27.51223 -82.61867 35014 ft 511 kts 174°
2026-05-04 23:47 27.44286 -82.59940 35018 ft 515 kts 170°
2026-05-04 23:47 27.37421 -82.57738 35022 ft 515 kts 170°
2026-05-04 23:48 27.30509 -82.55589 35024 ft 515 kts 171°
2026-05-04 23:48 27.23558 -82.53571 34984 ft 514 kts 172°
2026-05-04 23:49 27.16632 -82.51592 34999 ft 515 kts 172°
2026-05-04 23:49 27.10855 -82.49915 35003 ft 516 kts 171°
2026-05-04 23:50 27.03895 -82.47874 35009 ft 517 kts 171°
2026-05-04 23:50 26.95798 -82.45473 34981 ft 519 kts 168°
2026-05-04 23:51 26.90261 -82.42679 34985 ft 531 kts 152°
2026-05-04 23:51 26.84450 -82.37485 35025 ft 535 kts 143°
2026-05-04 23:52 26.78814 -82.32061 34922 ft 533 kts 143°
2026-05-04 23:52 26.76012 -82.29380 34316 ft 523 kts 143°
2026-05-04 23:52 26.73263 -82.26753 33345 ft 515 kts 143°
2026-05-04 23:53 26.70595 -82.24207 32486 ft 505 kts 143°
2026-05-04 23:53 26.67944 -82.21676 32056 ft 496 kts 143°
2026-05-04 23:53 26.65322 -82.19172 31367 ft 496 kts 143°
2026-05-04 23:53 26.62700 -82.16667 30807 ft 494 kts 143°
2026-05-04 23:54 26.60074 -82.14159 30186 ft 494 kts 144°
2026-05-04 23:54 26.57459 -82.11665 29520 ft 494 kts 144°
2026-05-04 23:54 26.54882 -82.09205 28949 ft 490 kts 144°
2026-05-04 23:54 26.52307 -82.06742 28440 ft 486 kts 143°
2026-05-04 23:55 26.49776 -82.04264 27907 ft 482 kts 142°
2026-05-04 23:55 26.47284 -82.01760 27399 ft 478 kts 142°
2026-05-04 23:55 26.42412 -81.96780 26404 ft 471 kts 142°
2026-05-04 23:56 26.40003 -81.94320 25914 ft 466 kts 142°
2026-05-04 23:56 26.37610 -81.91894 25451 ft 462 kts 142°
2026-05-04 23:56 26.35234 -81.89500 24995 ft 458 kts 142°
2026-05-04 23:56 26.32912 -81.87171 24508 ft 449 kts 142°
2026-05-04 23:57 26.30621 -81.84877 24099 ft 437 kts 143°
2026-05-04 23:57 26.28364 -81.82621 23645 ft 434 kts 143°
2026-05-04 23:57 26.26122 -81.80372 23151 ft 432 kts 141°
2026-05-04 23:57 26.24103 -81.77896 22699 ft 432 kts 130°
2026-05-04 23:58 26.22477 -81.75079 22238 ft 431 kts 120°
2026-05-04 23:58 26.21180 -81.72116 21787 ft 429 kts 118°
2026-05-04 23:58 26.19892 -81.69137 21333 ft 425 kts 118°
2026-05-04 23:58 26.18602 -81.66174 20851 ft 423 kts 118°
2026-05-04 23:59 26.17314 -81.63225 20387 ft 420 kts 119°
2026-05-04 23:59 26.16035 -81.60299 19916 ft 418 kts 119°
2026-05-04 23:59 26.14766 -81.57395 19445 ft 417 kts 119°
2026-05-04 23:59 26.13518 -81.54532 18981 ft 415 kts 119°
2026-05-05 00:00 26.12266 -81.51655 18664 ft 409 kts 119°
2026-05-05 00:00 26.11433 -81.49741 18440 ft 405 kts 119°
2026-05-05 00:00 26.09805 -81.46009 17813 ft 402 kts 119°
2026-05-05 00:00 26.08583 -81.43214 17378 ft 399 kts 119°
2026-05-05 00:01 26.07377 -81.40460 16825 ft 392 kts 119°
2026-05-05 00:01 26.06192 -81.37751 16160 ft 385 kts 118°
2026-05-05 00:01 26.05040 -81.35114 15752 ft 382 kts 118°
2026-05-05 00:01 26.03885 -81.32456 15329 ft 380 kts 118°
2026-05-05 00:02 26.02733 -81.29803 14881 ft 379 kts 118°
2026-05-05 00:02 26.01592 -81.27178 14502 ft 373 kts 118°
2026-05-05 00:02 26.00464 -81.24587 14079 ft 371 kts 118°
2026-05-05 00:02 25.99347 -81.22029 13703 ft 368 kts 118°
2026-05-05 00:03 25.98234 -81.19483 13264 ft 365 kts 119°
2026-05-05 00:03 25.97120 -81.16944 12788 ft 362 kts 118°
2026-05-05 00:03 25.96031 -81.14462 12188 ft 352 kts 118°
2026-05-05 00:03 25.94959 -81.12015 11745 ft 351 kts 118°
2026-05-05 00:04 25.93891 -81.09579 11299 ft 350 kts 118°
2026-05-05 00:04 25.92823 -81.07143 10861 ft 349 kts 118°
2026-05-05 00:04 25.91763 -81.04726 10548 ft 344 kts 118°
2026-05-05 00:04 25.90757 -81.02380 10215 ft 338 kts 117°
2026-05-05 00:05 25.89816 -81.00002 10017 ft 335 kts 115°
2026-05-05 00:05 25.88924 -80.97640 9875 ft 325 kts 115°
2026-05-05 00:05 25.88082 -80.95367 9589 ft 313 kts 115°
2026-05-05 00:05 25.87255 -80.93142 9048 ft 308 kts 115°
2026-05-05 00:06 25.86440 -80.90980 8718 ft 303 kts 115°
2026-05-05 00:06 25.85616 -80.88824 8440 ft 302 kts 115°
2026-05-05 00:06 25.84798 -80.86691 8173 ft 299 kts 115°
2026-05-05 00:06 25.83982 -80.84573 7897 ft 297 kts 115°
2026-05-05 00:07 25.83180 -80.82496 7575 ft 295 kts 115°
2026-05-05 00:07 25.82373 -80.80406 7289 ft 293 kts 115°
2026-05-05 00:07 25.81575 -80.78334 6994 ft 291 kts 115°
2026-05-05 00:07 25.80784 -80.76272 6705 ft 289 kts 114°
2026-05-05 00:08 25.79985 -80.74201 6400 ft 287 kts 115°
2026-05-05 00:08 25.79201 -80.72174 6096 ft 285 kts 115°
2026-05-05 00:08 25.78430 -80.70179 5803 ft 283 kts 114°
2026-05-05 00:08 25.77665 -80.68170 5514 ft 282 kts 111°
2026-05-05 00:09 25.77207 -80.66061 5229 ft 283 kts 96°
2026-05-05 00:09 25.77166 -80.63813 4943 ft 294 kts 87°
2026-05-05 00:09 25.77301 -80.61568 4638 ft 288 kts 86°
2026-05-05 00:09 25.77420 -80.59368 4342 ft 281 kts 87°
2026-05-05 00:10 25.77509 -80.57279 4058 ft 267 kts 87°
2026-05-05 00:10 25.77594 -80.55274 3824 ft 252 kts 87°
2026-05-05 00:10 25.77676 -80.53382 3613 ft 238 kts 86°
2026-05-05 00:10 25.77752 -80.51608 3483 ft 226 kts 86°
2026-05-05 00:11 25.77827 -80.49881 3236 ft 222 kts 86°
2026-05-05 00:11 25.77901 -80.48161 2950 ft 224 kts 85°
2026-05-05 00:11 25.77975 -80.46446 2668 ft 221 kts 86°
2026-05-05 00:11 25.78047 -80.44769 2381 ft 217 kts 86°
2026-05-05 00:12 25.78115 -80.43158 2116 ft 196 kts 86°
2026-05-05 00:12 25.78174 -80.41756 1904 ft 168 kts 86°
2026-05-05 00:12 25.78226 -80.40546 1658 ft 148 kts 85°
2026-05-05 00:12 25.78271 -80.39445 1408 ft 142 kts 86°
2026-05-05 00:13 25.78323 -80.38367 1243 ft 138 kts 86°
2026-05-05 00:13 25.78356 -80.37300 1059 ft 139 kts 86°
2026-05-05 00:13 25.78401 -80.36235 921 ft 137 kts 84°
2026-05-05 00:13 25.78457 -80.35178 771 ft 140 kts 85°
2026-05-05 00:14 25.78508 -80.34098 578 ft 140 kts 88°
2026-05-05 00:14 25.78541 -80.33029 399 ft 135 kts 85°
2026-05-05 00:14 25.78594 -80.31964 205 ft 140 kts 85°
2026-05-05 00:14 25.78636 -80.30913 45 ft 137 kts 84°
2026-05-05 00:15 25.78675 -80.29956 14 ft 105 kts 88°
2026-05-05 00:15 25.78701 -80.29339 15 ft 55 kts 86°
2026-05-05 00:15 25.78713 -80.29050 15 ft 32 kts 87°
2026-05-05 00:15 25.78729 -80.28816 15 ft 29 kts 76°
2026-05-05 00:16 25.78837 -80.28661 15 ft 19 kts 39°
2026-05-05 00:16 25.78936 -80.28571 15 ft 18 kts 39°
2026-05-05 00:16 25.79034 -80.28496 15 ft 17 kts 33°
2026-05-05 00:16 25.79135 -80.28434 15 ft 15 kts 31°
2026-05-05 00:17 25.79151 -80.28340 15 ft 14 kts 116°
2026-05-05 00:17 25.79103 -80.28251 16 ft 13 kts 123°
2026-05-05 00:17 25.79054 -80.28167 16 ft 13 kts 120°
2026-05-05 00:17 25.79046 -80.28088 17 ft 10 kts 41°
2026-05-05 00:18 25.79108 -80.28060 15 ft 9 kts 31°
2026-05-05 00:18 25.79115 -80.27998 15 ft 7 kts 103°
2026-05-05 00:18 25.79112 -80.27982 17 ft 0 kts 101°